Wind_Speed
5 5 6 6 6 6 5 6 6 6 6 7 7 6 6 7 6 6 6 6 5 5 6 6 6 6 7 7 8 9 9 8 8 8 7 7 7 7 6 5 5 4 4
5 6 6 6 5 5 6 6 6 7 6 6 6 6 7 7 7 6 7 6 6 6 7 7 7 7 7 8 9 9 9 9 9 9 9 9 9 8 8 7 6 5 5
6 7 7 7 6 7 7 6 6 6 5 5 5 6 7 6 7 6 6 6 7 7 7 7 8 8 8 8 8 9 9 9 9 9 10 10 9 9 9 9 8 7 6
7 7 8 8 7 8 7 7 6 5 5 4 5 5 5 5 6 6 6 7 7 7 7 8 8 8 8 8 9 9 9 9 9 10 10 10 10 10 10 10 9 8 8
8 8 8 8 8 8 8 7 7 6 5 5 5 5 5 5 6 6 6 7 7 7 7 8 8 8 9 9 9 10 10 10 9 10 10 11 11 11 10 10 9 9 9
8 7 7 8 7 8 8 7 7 7 6 6 6 6 5 5 5 5 6 6 7 7 7 7 8 8 9 9 10 10 10 10 10 10 11 11 11 11 11 11 10 10 10
8 8 8 8 8 8 7 7 7 7 7 6 6 6 5 6 5 5 6 6 7 7 8 8 8 9 10 10 10 11 11 11 10 10 10 10 10 11 11 11 11 11 11
8 8 8 8 8 8 7 7 7 6 6 6 6 6 6 7 6 6 7 7 7 8 9 9 9 9 10 10 10 10 10 10 11 12 11 10 9 10 11 11 12 12 12
7 7 7 7 7 7 7 7 7 7 7 6 6 7 7 7 6 6 7 8 8 9 9 9 9 9 10 10 9 9 10 10 11 12 11 11 11 11 12 12 13 13 12
8 8 7 8 7 7 8 8 8 8 7 7 7 7 7 7 7 7 7 8 8 9 8 9 8 8 9 9 9 9 9 9 10 11 11 11 11 12 12 13 13 13 13
8 8 8 7 8 7 8 8 8 8 8 7 7 7 7 7 7 7 7 8 8 8 7 8 7 8 8 9 9 9 9 10 10 11 11 11 11 12 12 12 13 14 14
8 8 8 8 7 7 8 8 8 7 7 6 6 6 6 6 6 7 7 7 7 7 7 8 7 8 8 9 9 9 10 9 9 9 10 11 11 11 11 11 12 13 13
8 8 9 8 8 8 8 7 7 7 6 6 6 6 6 6 6 5 6 6 6 6 7 8 8 8 8 8 9 9 9 9 9 9 9 10 11 11 11 11 12 12 12
8 9 9 8 8 8 7 7 7 6 6 5 5 5 5 5 5 5 5 6 6 6 6 7 8 8 8 8 7 8 8 8 8 8 8 9 10 11 11 11 12 12 12
9 9 9 8 8 7 7 7 7 6 6 5 5 5 5 5 5 5 5 5 5 5 6 6 7 7 7 7 7 7 6 7 8 8 8 9 9 10 10 11 12 12 12
8 9 8 8 8 7 7 7 6 6 6 5 5 5 5 5 5 4 4 4 5 5 5 5 6 5 5 5 5 6 7 7 7 8 8 8 8 9 9 10 10 11 11
9 9 9 9 8 8 8 7 6 7 6 5 6 5 5 5 4 4 4 4 4 4 4 4 5 5 5 5 5 5 5 5 6 6 7 7 7 8 8 8 9 10 10
9 9 9 10 9 8 8 6 6 7 6 6 6 6 6 5 5 5 4 4 4 4 5 4 4 4 4 4 5 5 5 5 6 6 7 7 7 7 7 8 8 9 9
9 9 10 10 10 9 8 6 6 6 6 6 6 6 6 5 5 5 5 5 5 5 4 4 4 4 4 4 4 4 5 5 6 6 7 7 7 7 8 8 8 9 9
9 9 9 10 9 9 9 8 7 7 7 6 6 6 6 6 6 6 5 5 5 5 4 4 4 4 4 4 4 4 5 5 5 6 7 7 7 7 8 7 8 8 9
9 9 9 9 9 9 9 8 8 7 7 7 7 7 7 7 7 6 6 5 5 5 4 4 4 4 3 3 4 4 4 5 5 6 6 7 7 7 6 7 7 8 8
9 9 9 9 9 9 9 8 8 8 8 7 6 7 7 7 6 6 6 5 5 4 4 4 3 3 3 3 4 4 5 5 5 6 6 6 6 6 6 7 7 8 8
10 10 9 10 9 9 9 8 8 8 8 7 7 7 7 7 7 6 6 5 4 4 4 3 4 4 4 4 4 5 4 5 6 6 5 5 5 5 6 7 7 8 8
9 10 10 10 10 9 9 8 8 8 8 7 7 6 6 7 7 6 6 5 5 5 4 4 4 4 4 4 5 5 5 6 6 6 6 6 6 6 7 7 7 8 9
9 10 10 10 10 10 9 9 8 8 8 7 7 7 7 7 7 6 6 6 5 5 4 4 5 5 5 5 5 5 5 5 5 6 6 6 7 7 7 8 8 8 9
10 10 10 10 10 10 10 9 9 8 8 8 7 8 7 7 7 6 6 6 6 6 5 5 5 5 5 5 5 5 5 6 6 6 7 7 7 7 7 8 8 8 8
Wind_Direction
301 294 302 302 298 294 288 285 285 282 276 265 257 247 242 238 235 238 240 245 237 229 223 222 224 224 214 212 213 210 211 212 215 218 220 221 221 223 226 231 234 230 224
301 295 297 301 299 296 293 288 288 287 281 265 253 255 251 241 240 242 243 242 241 239 233 231 232 234 227 222 214 213 216 221 223 224 226 227 228 230 234 237 240 243 241
307 301 297 300 295 293 289 292 293 292 286 271 266 263 258 243 239 241 245 245 249 248 240 233 230 232 229 227 224 220 220 223 226 228 230 231 232 233 235 237 242 247 248
310 301 298 297 294 293 292 294 297 293 298 294 282 271 261 257 251 248 247 250 253 249 247 241 239 234 235 233 230 229 225 226 229 233 233 233 236 238 238 239 242 244 246
306 300 295 296 294 295 291 292 292 292 293 291 282 275 274 274 258 252 252 255 253 254 254 248 246 243 244 244 239 236 231 231 236 236 235 233 236 238 238 241 242 242 246
310 305 302 302 300 298 291 292 295 289 285 281 277 276 271 279 266 254 254 257 255 254 254 254 251 248 247 249 247 243 239 239 242 242 239 238 239 242 242 243 245 244 248
313 306 302 303 304 302 302 303 299 288 282 279 278 274 269 277 270 259 255 261 257 254 254 257 255 251 249 252 252 248 245 242 246 246 243 243 244 247 249 249 248 247 251
313 309 307 308 311 311 312 306 296 290 283 280 277 271 275 282 277 267 263 262 263 265 261 257 258 255 254 256 255 252 250 247 247 249 249 250 250 252 253 252 250 252 253
321 321 314 317 314 310 312 311 303 297 289 284 281 277 282 287 287 279 271 268 270 270 266 261 260 262 260 257 258 258 256 257 254 249 250 253 256 258 256 253 252 253 254
328 328 321 314 313 310 311 312 309 303 291 287 285 278 280 284 290 291 279 276 275 276 270 268 266 263 261 257 256 258 262 262 255 250 251 254 257 260 259 255 253 255 256
331 332 331 323 317 316 317 317 312 304 293 289 286 284 282 286 288 288 283 282 277 280 276 275 268 262 265 264 266 266 265 263 257 254 253 254 256 259 259 258 256 255 257
335 336 334 329 328 326 324 323 320 315 305 301 294 291 287 289 290 288 287 285 282 279 274 271 273 272 269 268 266 268 265 263 260 257 253 255 256 259 259 259 258 256 258
334 335 334 332 330 328 331 336 332 324 317 306 299 294 293 294 295 296 294 292 288 280 274 275 275 276 274 273 271 271 267 261 259 258 257 258 256 255 258 259 258 259 261
333 333 331 331 331 331 332 335 334 325 325 322 311 302 303 302 299 301 303 302 298 291 292 286 280 275 276 273 269 272 271 262 263 260 263 262 257 253 257 260 261 263 265
335 335 336 335 333 333 332 332 332 329 328 324 315 312 307 306 307 305 308 307 301 296 290 286 283 282 285 280 273 274 275 271 269 267 263 262 260 258 257 260 263 263 265
338 341 339 340 336 336 334 329 326 325 322 322 317 314 311 308 307 309 308 307 306 304 297 292 290 290 285 284 282 279 272 268 271 267 263 263 263 262 260 261 264 266 268
338 339 338 341 338 336 334 332 325 323 321 318 320 317 314 309 308 311 313 310 311 309 306 300 294 292 293 293 290 281 273 271 270 266 271 269 266 263 260 261 265 268 271
337 338 337 338 332 331 333 327 322 321 323 320 315 315 318 308 308 311 312 311 306 306 306 300 292 294 295 295 293 283 276 274 271 270 276 278 270 268 268 267 267 273 276
334 333 334 331 328 327 328 327 325 319 318 323 320 317 320 317 309 308 308 308 306 303 304 301 293 296 296 296 294 289 282 279 276 273 280 284 279 277 277 274 270 273 277
330 332 332 332 330 331 329 326 324 318 316 315 315 317 321 320 315 308 303 306 300 298 300 300 296 300 300 301 301 294 290 291 294 294 289 285 281 279 282 280 275 278 278
326 330 332 335 335 333 329 328 325 323 321 318 313 312 314 314 315 312 307 299 293 289 288 290 289 296 300 300 306 306 302 302 304 304 301 293 286 289 292 287 279 282 282
326 329 330 336 335 331 326 323 325 325 328 325 317 310 309 310 310 309 305 301 292 290 286 289 288 298 298 293 294 302 312 308 311 309 304 303 296 292 293 293 286 286 288
329 331 336 339 336 333 330 329 333 331 330 328 321 313 309 311 312 310 303 302 304 301 288 286 292 289 292 293 292 294 297 305 313 317 317 313 303 297 292 292 288 289 293
328 330 337 339 335 330 329 328 330 331 329 327 320 314 310 311 313 309 304 300 304 301 292 287 295 286 286 289 292 289 293 297 299 307 312 315 309 306 300 294 292 293 295
322 325 330 333 333 329 328 327 326 327 327 325 320 315 311 308 306 303 301 301 299 297 290 284 285 290 288 288 290 290 290 294 299 303 308 309 307 303 302 300 293 296 295
317 318 322 326 331 332 328 324 324 324 324 323 320 315 312 309 304 302 296 298 299 298 294 289 287 287 290 293 295 293 293 300 304 305 307 307 306 302 298 301 302 302 298
Height
5875 5874 5873 5873 5872 5872 5872 5872 5871 5871 5870 5870 5870 5870 5871 5871 5872 5872 5872 5872 5873 5873 5873 5874 5874 5875 5875 5876 5877 5877 5878 5879 5880 5881 5882 5883 5884 5885 5886 5887 5888 5888 5889
5874 5873 5873 5872 5872 5871 5871 5870 5870 5869 5869 5869 5869 5869 5869 5870 5870 5871 5871 5871 5872 5872 5873 5873 5873 5874 5874 5875 5876 5876 5877 5878 5879 5880 5881 5882 5883 5884 5885 5886 5887 5888 5888
5873 5873 5872 5871 5871 5870 5870 5869 5869 5868 5868 5868 5868 5868 5868 5869 5869 5870 5870 5870 5871 5871 5872 5872 5872 5873 5873 5874 5874 5875 5876 5877 5878 5879 5880 5881 5882 5883 5884 5885 5886 5886 5887
5872 5872 5871 5871 5870 5870 5869 5869 5868 5868 5868 5868 5867 5867 5867 5868 5868 5869 5869 5869 5870 5870 5870 5871 5871 5871 5872 5872 5873 5874 5875 5876 5877 5877 5878 5879 5880 5881 5882 5883 5884 5885 5886
5872 5871 5870 5870 5869 5868 5868 5868 5867 5867 5867 5867 5867 5866 5867 5867 5867 5868 5868 5868 5869 5869 5869 5870 5870 5870 5871 5871 5872 5872 5873 5874 5875 5876 5877 5878 5879 5880 5881 5882 5883 5884 5885
5871 5870 5869 5869 5868 5867 5867 5867 5866 5866 5866 5866 5866 5866 5866 5866 5866 5866 5867 5867 5868 5868 5868 5868 5869 5869 5869 5870 5870 5871 5872 5872 5873 5874 5875 5876 5877 5878 5879 5880 5881 5882 5883
5870 5869 5868 5868 5867 5866 5865 5865 5865 5865 5865 5865 5865 5865 5865 5865 5865 5865 5866 5866 5866 5867 5867 5867 5867 5868 5868 5868 5869 5869 5870 5871 5871 5872 5873 5874 5875 5876 5877 5878 5880 5881 5881
5869 5868 5867 5866 5865 5865 5864 5864 5864 5864 5864 5863 5863 5863 5864 5864 5864 5864 5864 5865 5865 5865 5865 5866 5866 5866 5866 5867 5867 5868 5868 5869 5870 5870 5871 5872 5873 5874 5875 5876 5878 5879 5879
5868 5867 5866 5866 5865 5863 5863 5863 5863 5863 5862 5862 5862 5862 5862 5862 5862 5863 5863 5863 5863 5863 5863 5864 5864 5864 5864 5865 5865 5866 5867 5867 5868 5869 5870 5871 5872 5872 5873 5874 5875 5876 5877
5867 5866 5866 5865 5864 5863 5863 5862 5862 5861 5861 5861 5861 5861 5861 5861 5861 5861 5861 5861 5861 5861 5861 5862 5862 5862 5863 5863 5864 5864 5865 5866 5866 5867 5868 5869 5870 5870 5871 5872 5873 5874 5875
5866 5866 5865 5864 5863 5862 5862 5861 5860 5860 5860 5859 5859 5859 5859 5859 5859 5859 5859 5859 5859 5860 5860 5860 5860 5861 5861 5862 5862 5863 5864 5864 5864 5865 5866 5867 5867 5868 5869 5869 5870 5871 5872
5866 5865 5864 5863 5862 5862 5861 5860 5859 5859 5858 5858 5858 5858 5858 5858 5858 5858 5858 5858 5858 5858 5858 5858 5858 5859 5859 5860 5860 5861 5862 5862 5863 5863 5864 5865 5865 5866 5867 5867 5868 5869 5869
5865 5865 5864 5863 5862 5861 5860 5859 5858 5858 5858 5857 5857 5857 5857 5857 5857 5857 5857 5856 5856 5856 5856 5856 5856 5857 5857 5858 5858 5859 5859 5860 5861 5861 5862 5862 5863 5864 5864 5865 5866 5866 5867
5865 5864 5863 5862 5861 5860 5859 5859 5858 5858 5857 5857 5856 5856 5856 5856 5856 5856 5856 5855 5855 5855 5855 5855 5855 5855 5856 5856 5856 5857 5858 5858 5859 5859 5860 5860 5860 5861 5862 5863 5863 5864 5864
5865 5863 5862 5861 5860 5860 5859 5858 5858 5857 5857 5856 5856 5855 5855 5855 5855 5855 5855 5855 5854 5854 5854 5854 5854 5854 5854 5854 5855 5855 5856 5857 5857 5857 5858 5858 5859 5859 5860 5860 5861 5862 5862
5864 5863 5862 5861 5860 5859 5858 5858 5857 5856 5856 5855 5855 5855 5854 5854 5854 5854 5854 5854 5853 5853 5853 5853 5853 5853 5853 5853 5854 5854 5854 5855 5855 5856 5856 5856 5857 5857 5858 5858 5859 5859 5859
5864 5863 5862 5860 5859 5859 5858 5857 5857 5856 5855 5855 5855 5854 5854 5854 5853 5853 5853 5853 5853 5852 5852 5852 5852 5852 5852 5852 5853 5853 5853 5854 5854 5854 5855 5855 5855 5855 5855 5856 5856 5857 5857
5863 5862 5861 5860 5859 5858 5857 5857 5856 5855 5855 5855 5854 5854 5853 5853 5853 5853 5852 5852 5852 5852 5851 5851 5851 5851 5851 5852 5852 5852 5852 5852 5853 5853 5853 5853 5853 5853 5854 5854 5854 5855 5855
5862 5862 5860 5859 5858 5858 5857 5856 5855 5855 5854 5854 5853 5853 5853 5852 5852 5852 5852 5851 5851 5851 5851 5850 5850 5850 5850 5851 5851 5851 5851 5851 5851 5851 5851 5851 5852 5852 5852 5852 5853 5853 5853
5862 5861 5860 5858 5858 5857 5856 5855 5855 5854 5854 5853 5853 5852 5852 5852 5851 5851 5851 5851 5850 5850 5850 5850 5850 5850 5850 5850 5850 5850 5850 5850 5850 5850 5850 5850 5850 5850 5850 5850 5851 5851 5851
5861 5860 5859 5857 5857 5856 5855 5855 5854 5853 5853 5852 5852 5851 5851 5851 5850 5850 5850 5850 5849 5849 5849 5849 5849 5849 5849 5849 5849 5849 5849 5849 5849 5849 5849 5848 5848 5848 5849 5849 5849 5849 5849
5860 5859 5859 5857 5856 5856 5855 5854 5853 5852 5852 5851 5851 5850 5850 5850 5849 5849 5849 5849 5848 5848 5848 5848 5848 5848 5848 5848 5849 5849 5849 5849 5848 5848 5847 5847 5847 5847 5847 5847 5847 5847 5847
5860 5859 5858 5857 5856 5855 5854 5853 5852 5851 5851 5850 5850 5850 5849 5849 5848 5848 5848 5848 5847 5847 5847 5847 5847 5847 5848 5848 5848 5848 5848 5847 5847 5847 5846 5846 5846 5846 5845 5845 5845 5845 5845
5859 5858 5857 5856 5855 5854 5853 5853 5852 5851 5850 5850 5849 5849 5848 5848 5847 5847 5847 5847 5847 5846 5846 5846 5846 5846 5847 5846 5846 5847 5847 5846 5846 5845 5845 5845 5844 5844 5844 5844 5843 5843 5843
5858 5857 5856 5855 5855 5854 5853 5852 5851 5850 5849 5849 5848 5848 5847 5847 5846 5846 5846 5846 5846 5846 5845 5845 5845 5845 5845 5845 5845 5845 5845 5845 5845 5845 5844 5844 5843 5842 5842 5842 5841 5841 5841
5857 5856 5855 5854 5854 5853 5852 5851 5850 5849 5848 5848 5847 5846 5846 5846 5845 5845 5845 5845 5845 5844 5844 5844 5844 5844 5844 5844 5844 5844 5844 5844 5843 5843 5843 5842 5842 5841 5840 5840 5840 5839 5839